Back to catalog

PEGASUS DEB

AlivePO
NORAD 24817·DEBRIS·🇺🇸 United States

Launched May 19, 1994 from Vandenberg Space Force Base

Loading…

Next Passes (next 24 hours)

TLE

FreshSource: Space-Track

Epoch: Sep 14, 2026, 12:33 UTC

1 24817U 94029ABU 26257.52359197  .00001510  00000-0  36240-3 0  9994
2 24817  81.6853 274.3919 0357784 182.2121 332.6554 14.20510419533366

Track PEGASUS DEB in real time with AllMySat

Download on the App Store